| time (UTC) | temp F | wind direction | speed MPH | gust MPH | rain 1hr in | rain 24hr in | rain mn in | humidity % | barometer mb |
| 20260508124459 | 41 | 236 | 1.0 | 4.0 | 0.03 | 0.08 | 0.04 | 93 | 1013.5 |
| 20260508122959 | 40 | 265 | 1.0 | 4.0 | 0.03 | 0.08 | 0.04 | 92 | 1013.5 |
| 20260508121459 | 41 | 267 | 4.0 | 12.0 | 0.02 | 0.07 | 0.03 | 93 | 1013.6 |
| 20260508114459 | 41 | 261 | 1.0 | 3.0 | 0.00 | 0.05 | 0.01 | 97 | 1012.8 |
| 20260508112958 | 40 | 213 | 0.0 | 0.0 | 0.00 | 0.05 | 0.01 | 97 | 1012.4 |
| 20260508111458 | 40 | 213 | 0.0 | 2.0 | 0.00 | 0.05 | 0.01 | 97 | 1012.2 |
| 20260508110001 | 40 | 213 | 0.0 | 2.0 | 0.00 | 0.05 | 0.01 | 97 | 1012.1 |
| 20260508104459 | 39 | 213 | 0.0 | 0.0 | 0.00 | 0.05 | 0.01 | 97 | 1011.8 |
| 20260508102959 | 39 | 213 | 0.0 | 0.0 | 0.00 | 0.05 | 0.01 | 96 | 1011.9 |
| 20260508101458 | 39 | 213 | 0.0 | 0.0 | 0.00 | 0.05 | 0.01 | 96 | 1011.8 |
| 20260508100003 | 39 | 213 | 0.0 | 2.0 | 0.00 | 0.05 | 0.01 | 96 | 1011.9 |
| 20260508094458 | 39 | 213 | 0.0 | 0.0 | 0.00 | 0.05 | 0.01 | 96 | 1012.1 |
| 20260508092959 | 38 | 213 | 0.0 | 0.0 | 0.00 | 0.05 | 0.01 | 97 | 1012.2 |
| 20260508091458 | 38 | 213 | 0.0 | 0.0 | 0.00 | 0.05 | 0.01 | 96 | 1012.4 |
| 20260508090005 | 38 | 213 | 0.0 | 0.0 | 0.00 | 0.05 | 0.01 | 96 | 1012.4 |
| 20260508084458 | 37 | 213 | 0.0 | 0.0 | 0.00 | 0.05 | 0.01 | 96 | 1012.4 |
| 20260508082959 | 37 | 213 | 0.0 | 0.0 | 0.00 | 0.05 | 0.01 | 95 | 1012.4 |
| 20260508081458 | 37 | 213 | 0.0 | 0.0 | 0.00 | 0.05 | 0.01 | 95 | 1012.3 |
| 20260508080001 | 37 | 213 | 0.0 | 0.0 | 0.00 | 0.05 | 0.01 | 95 | 1012.3 |
| 20260508074458 | 37 | 213 | 0.0 | 0.0 | 0.00 | 0.05 | 0.01 | 94 | 1012.3 |
| 20260508072959 | 38 | 213 | 0.0 | 0.0 | 0.00 | 0.05 | 0.01 | 94 | 1012.3 |
| 20260508064457 | 39 | 213 | 0.0 | 1.0 | 0.00 | 0.05 | 0.01 | 93 | 1012.5 |
| 20260508061457 | 40 | 213 | 0.0 | 1.0 | 0.00 | 0.05 | 0.01 | 93 | 1012.5 |
| 20260508060001 | 41 | 213 | 0.0 | 1.0 | 0.00 | 0.05 | 0.01 | 93 | 1012.6 |
| 20260508054457 | 41 | 224 | 1.0 | 3.0 | 0.00 | 0.05 | 0.01 | 93 | 1012.6 |
| 20260508052958 | 42 | 221 | 1.0 | 4.0 | 0.01 | 0.05 | 0.01 | 93 | 1012.8 |
| 20260508051457 | 42 | 225 | 1.0 | 2.0 | 0.01 | 0.05 | 0.01 | 94 | 1012.8 |
| 20260508050004 | 42 | 225 | 0.0 | 2.0 | 0.01 | 0.05 | 0.01 | 93 | 1012.7 |
| 20260508044457 | 42 | 236 | 0.0 | 2.0 | 0.01 | 0.05 | 0.01 | 93 | 1012.8 |
| 20260508042957 | 42 | 236 | 0.0 | 0.0 | 0.01 | 0.04 | 0.00 | 93 | 1012.7 |
| 20260508041458 | 42 | 236 | 1.0 | 2.0 | 0.03 | 0.04 | 0.00 | 92 | 1012.6 |
| 20260508040006 | 43 | 236 | 1.0 | 3.0 | 0.03 | 0.04 | 0.00 | 92 | 1012.6 |
| 20260508034501 | 43 | 263 | 1.0 | 4.0 | 0.04 | 0.04 | 0.04 | 91 | 1012.7 |
| 20260508033002 | 43 | 275 | 1.0 | 3.0 | 0.03 | 0.03 | 0.03 | 91 | 1012.6 |
| 20260508031501 | 43 | 238 | 1.0 | 4.0 | 0.01 | 0.01 | 0.01 | 89 | 1012.8 |
| 20260508030007 | 43 | 313 | 2.0 | 7.0 | 0.01 | 0.01 | 0.01 | 87 | 1012.7 |
| 20260508024500 | 44 | 260 | 1.0 | 3.0 | 0.00 | 0.00 | 0.00 | 86 | 1012.8 |
| 20260508023000 | 44 | 277 | 1.0 | 3.0 | 0.00 | 0.00 | 0.00 | 84 | 1012.7 |
| 20260508021500 | 44 | 298 | 2.0 | 4.0 | 0.00 | 0.00 | 0.00 | 83 | 1012.8 |
| 20260508020004 | 45 | 279 | 2.0 | 4.0 | 0.00 | 0.00 | 0.00 | 82 | 1012.6 |
| 20260508014500 | 45 | 277 | 2.0 | 3.0 | 0.00 | 0.00 | 0.00 | 80 | 1012.5 |
| 20260508013000 | 45 | 296 | 2.0 | 4.0 | 0.00 | 0.00 | 0.00 | 79 | 1012.4 |
| 20260508010005 | 46 | 305 | 2.0 | 6.0 | 0.00 | 0.00 | 0.00 | 73 | 1012.1 |
| 20260508004500 | 46 | 274 | 0.0 | 3.0 | 0.00 | 0.00 | 0.00 | 73 | 1011.7 |
| 20260508003001 | 47 | 275 | 0.0 | 0.0 | 0.00 | 0.00 | 0.00 | 75 | 1011.5 |
| 20260508001500 | 47 | 333 | 0.0 | 0.0 | 0.00 | 0.00 | 0.00 | 71 | 1011.5 |
| 20260507234500 | 49 | 333 | 0.0 | 0.0 | 0.00 | 0.05 | 0.00 | 66 | 1011.3 |
| 20260507233000 | 49 | 333 | 1.0 | 3.0 | 0.00 | 0.05 | 0.00 | 61 | 1011.1 |
| 20260507231500 | 49 | 333 | 2.0 | 3.0 | 0.00 | 0.05 | 0.00 | 61 | 1011.2 |
| 20260507221500 | 50 | 323 | 1.0 | 5.0 | 0.00 | 0.13 | 0.00 | 60 | 1011.3 |
| 20260507220009 | 50 | 331 | 2.0 | 3.0 | 0.00 | 0.13 | 0.00 | 60 | 1011.4 |
| 20260507214500 | 50 | 19 | 2.0 | 5.0 | 0.00 | 0.13 | 0.00 | 60 | 1011.3 |
| 20260507213000 | 51 | 328 | 2.0 | 5.0 | 0.00 | 0.13 | 0.00 | 59 | 1011.3 |
| 20260507211500 | 52 | 39 | 2.0 | 5.0 | 0.00 | 0.13 | 0.00 | 59 | 1011.2 |
| 20260507210005 | 51 | 286 | 2.0 | 4.0 | 0.00 | 0.13 | 0.00 | 59 | 1011.2 |
| 20260507204501 | 51 | 86 | 2.0 | 5.0 | 0.00 | 0.13 | 0.00 | 62 | 1011.2 |
| 20260507203000 | 51 | 40 | 1.0 | 4.0 | 0.00 | 0.13 | 0.00 | 66 | 1011.2 |
| 20260507200004 | 51 | 28 | 2.0 | 5.0 | 0.00 | 0.13 | 0.00 | 65 | 1011.3 |
| 20260507193000 | 51 | 336 | 3.0 | 5.0 | 0.00 | 0.13 | 0.00 | 65 | 1011.7 |
| 20260507190005 | 51 | 11 | 4.0 | 9.0 | 0.00 | 0.13 | 0.00 | 66 | 1011.6 |
| 20260507184500 | 52 | 310 | 3.0 | 8.0 | 0.00 | 0.13 | 0.00 | 55 | 1011.7 |
| 20260507183000 | 53 | 299 | 3.0 | 7.0 | 0.00 | 0.13 | 0.00 | 57 | 1011.8 |
| 20260507181500 | 53 | 277 | 4.0 | 10.0 | 0.00 | 0.13 | 0.00 | 57 | 1011.7 |
| 20260507180004 | 54 | 360 | 3.0 | 9.0 | 0.00 | 0.13 | 0.00 | 54 | 1011.9 |
| 20260507174500 | 54 | 284 | 4.0 | 13.0 | 0.00 | 0.14 | 0.00 | 59 | 1011.9 |
| 20260507172959 | 53 | 291 | 3.0 | 12.0 | 0.00 | 0.14 | 0.00 | 60 | 1011.9 |
| 20260507164459 | 52 | 248 | 5.0 | 13.0 | 0.00 | 0.14 | 0.00 | 60 | 1012.5 |
| 20260507162959 | 51 | 265 | 4.0 | 11.0 | 0.00 | 0.14 | 0.00 | 58 | 1012.8 |
| 20260507161459 | 51 | 226 | 2.0 | 7.0 | 0.00 | 0.14 | 0.00 | 61 | 1012.8 |
| 20260507160005 | 50 | 286 | 3.0 | 9.0 | 0.00 | 0.14 | 0.00 | 62 | 1013.0 |
| 20260507154500 | 50 | 269 | 4.0 | 9.0 | 0.00 | 0.14 | 0.00 | 67 | 1013.1 |
| 20260507153000 | 48 | 227 | 4.0 | 8.0 | 0.00 | 0.14 | 0.00 | 66 | 1013.3 |
| 20260507151500 | 49 | 348 | 3.0 | 5.0 | 0.00 | 0.14 | 0.00 | 68 | 1013.4 |
| 20260507150002 | 48 | 350 | 3.0 | 6.0 | 0.00 | 0.14 | 0.00 | 70 | 1013.4 |
| 20260507144458 | 47 | 213 | 2.0 | 6.0 | 0.00 | 0.14 | 0.00 | 68 | 1013.5 |
| 20260507141459 | 46 | 77 | 2.0 | 5.0 | 0.00 | 0.14 | 0.00 | 68 | 1013.4 |
| 20260507140001 | 45 | 308 | 1.0 | 4.0 | 0.00 | 0.14 | 0.00 | 71 | 1013.5 |
| 20260507134459 | 44 | 327 | 1.0 | 5.0 | 0.00 | 0.18 | 0.00 | 75 | 1013.7 |
| 20260507132959 | 43 | 261 | 1.0 | 3.0 | 0.00 | 0.18 | 0.00 | 79 | 1013.9 |
| 20260507131458 | 42 | 223 | 0.0 | 2.0 | 0.00 | 0.18 | 0.00 | 82 | 1014.0 |
| 20260507130001 | 41 | 223 | 0.0 | 2.0 | 0.00 | 0.18 | 0.00 | 82 | 1014.1 |